Vorticity
14 11 16 7 7 7 7 7 7 14 12 20 25 23 13 20 -2 30 62 68 66 58 23 14 18 22 16 7 6 5 3 7 7 4 7 6 3 4 -7 -9 7 7 -23 20
13 12 8 6 7 7 6 7 5 8 17 17 22 26 10 6 5 15 10 8 3 -8 6 29 48 42 21 20 17 6 3 4 8 7 4 7 6 4 6 11 2 13 -5 -0
9 6 7 9 8 7 7 7 7 8 10 13 18 21 18 27 16 9 7 9 6 11 10 5 -5 11 40 28 25 19 6 2 4 8 6 4 5 4 3 -3 12 -9 1 5
6 7 7 9 9 8 8 7 8 8 12 15 21 17 8 21 36 47 45 26 22 13 10 6 4 11 8 25 38 40 16 5 4 5 7 5 4 6 8 7 4 7 9 5
5 6 6 8 9 9 7 9 8 8 9 12 13 21 13 12 15 18 21 35 29 17 13 30 36 36 40 34 31 34 40 7 3 5 6 7 6 7 12 -6 11 8 6 4
7 7 7 9 10 10 10 10 8 10 6 10 11 11 21 8 11 17 17 16 20 29 22 13 29 30 23 30 29 31 42 34 7 0 6 6 6 4 4 8 -7 6 7 4
3 5 7 8 8 7 10 8 9 12 11 8 8 10 12 7 7 10 18 20 18 18 18 8 7 30 26 21 12 17 39 45 31 12 3 6 6 6 3 5 6 4 1 6
8 6 6 7 7 9 6 11 13 7 10 12 9 8 4 9 9 7 11 18 23 12 19 17 10 7 9 21 18 8 11 34 42 37 16 6 5 6 5 1 5 6 4 2
5 6 9 8 7 7 5 9 8 5 8 14 7 7 11 9 8 6 8 11 20 26 13 13 16 12 10 15 27 24 5 12 27 40 44 15 10 6 6 5 1 6 6 5
2 5 7 10 6 7 9 10 10 -1 2 6 19 9 7 10 9 8 6 8 11 22 25 15 10 11 11 12 17 31 20 4 13 26 43 38 20 10 5 5 4 2 6 7
4 2 4 12 8 7 7 7 11 13 12 6 2 11 9 9 12 10 7 9 8 16 25 27 13 12 13 10 13 19 40 13 5 13 32 40 41 26 10 5 4 5 3 5
2 3 3 9 8 9 8 9 7 9 10 8 9 3 10 8 11 11 10 9 7 10 21 36 20 14 14 15 17 18 27 30 7 8 20 39 33 42 31 8 4 3 4 5
6 1 -0 4 11 6 8 8 8 9 12 10 13 2 12 8 10 13 8 13 10 8 18 26 32 21 20 22 23 29 37 39 6 7 22 28 48 36 42 32 8 3 4 3
10 7 3 -1 4 9 4 9 13 8 11 13 9 16 10 10 10 8 7 13 14 12 11 21 31 23 24 29 37 49 46 17 7 11 15 11 20 45 36 36 32 7 3 4
5 12 6 2 -0 4 7 4 9 12 9 9 14 13 10 11 10 8 9 6 9 19 9 15 25 34 21 31 26 14 5 5 8 8 7 11 7 20 48 43 32 37 7 3
2 10 11 4 4 -0 4 6 5 10 11 8 8 13 12 12 7 9 11 7 6 14 15 9 17 44 25 9 6 10 10 11 9 3 -1 11 12 5 15 43 53 30 43 7
3 6 10 7 4 3 1 7 5 5 12 9 9 10 12 11 10 10 9 9 8 4 14 18 10 24 51 12 10 8 11 14 18 15 14 9 12 10 8 9 30 53 35 39
6 2 5 10 4 6 4 1 9 3 8 13 9 9 9 12 11 10 8 11 10 6 3 14 14 9 33 35 23 14 5 -0 4 11 9 9 17 10 15 21 22 27 45 37
7 3 2 4 12 10 8 4 4 6 4 8 8 10 9 8 11 11 9 9 10 9 6 4 16 14 12 38 26 13 9 12 8 3 8 8 10 16 17 18 16 31 32 33
12 6 1 3 10 6 9 5 2 4 4 8 9 6 11 10 10 10 12 10 8 10 10 5 4 13 18 12 36 27 6 3 10 4 -1 8 11 9 8 11 25 17 34 40
6 8 3 2 4 10 11 7 4 5 5 7 6 7 9 11 11 8 11 10 11 9 11 9 6 3 9 20 15 14 47 23 5 7 9 8 5 5 11 8 10 23 19 27
8 13 3 1 5 5 11 10 7 4 8 6 8 2 5 11 10 9 6 10 12 12 9 9 10 8 4 5 15 19 17 16 50 22 3 4 12 3 1 9 10 11 20 14
6 13 3 6 3 6 13 11 7 2 5 6 7 3 8 8 11 9 9 7 9 10 12 10 9 10 9 6 2 7 18 19 13 26 46 20 8 -0 4 1 3 12 10 15
6 9 4 3 7 9 11 10 9 4 5 6 4 4 6 10 11 10 10 9 6 9 10 12 11 9 10 11 8 3 3 12 22 17 12 29 47 25 12 6 2 1 4 8
11 6 2 4 9 10 8 8 7 5 6 7 3 6 4 10 9 12 8 9 9 8 8 8 11 13 10 9 9 10 7 2 2 15 23 14 11 25 43 37 19 8 5 -0
14 6 1 2 11 10 6 8 7 5 11 6 5 7 6 10 9 11 8 8 8 9 9 8 9 11 10 11 9 9 10 9 6 2 1 11 25 15 9 8 26 41 35 20
Height
5793 5790 5784 5777 5771 5764 5756 5746 5736 5724 5710 5695 5676 5666 5656 5647 5644 5638 5634 5634 5634 5632 5628 5628 5631 5635 5639 5645 5653 5663 5672 5680 5690 5699 5707 5715 5723 5731 5736 5741 5749 5757 5762 5767
5793 5786 5779 5771 5764 5757 5748 5739 5730 5717 5705 5689 5674 5661 5651 5640 5635 5634 5630 5627 5625 5624 5620 5617 5615 5616 5618 5621 5628 5639 5652 5662 5673 5684 5692 5701 5710 5718 5726 5733 5738 5744 5750 5756
5789 5782 5775 5768 5759 5752 5743 5734 5723 5711 5697 5684 5667 5656 5647 5638 5629 5623 5622 5618 5616 5613 5610 5606 5602 5600 5601 5602 5606 5614 5629 5644 5656 5668 5676 5686 5695 5703 5713 5720 5726 5733 5741 5747
5785 5779 5772 5765 5757 5749 5740 5729 5718 5707 5694 5681 5669 5659 5648 5636 5629 5621 5612 5607 5603 5600 5596 5592 5590 5587 5587 5588 5588 5593 5606 5624 5638 5650 5660 5669 5679 5688 5697 5705 5713 5722 5731 5738
5784 5777 5770 5762 5755 5745 5737 5726 5715 5703 5692 5682 5670 5661 5647 5635 5625 5616 5607 5599 5593 5587 5584 5580 5575 5572 5571 5573 5574 5577 5585 5603 5619 5631 5642 5653 5663 5672 5682 5690 5700 5710 5719 5727
5783 5776 5768 5760 5750 5742 5733 5723 5712 5703 5693 5683 5670 5656 5643 5632 5623 5613 5603 5594 5586 5579 5575 5571 5565 5561 5560 5561 5562 5564 5569 5579 5596 5612 5625 5636 5648 5657 5667 5677 5688 5697 5706 5715
5782 5774 5766 5758 5749 5740 5732 5723 5714 5705 5692 5678 5665 5653 5639 5630 5621 5611 5599 5589 5581 5572 5567 5563 5560 5556 5553 5552 5552 5553 5555 5561 5574 5589 5606 5618 5630 5642 5651 5661 5672 5684 5694 5701
5780 5773 5765 5757 5748 5739 5729 5718 5706 5696 5685 5676 5665 5652 5640 5629 5619 5606 5595 5584 5574 5567 5561 5556 5553 5550 5546 5544 5543 5544 5545 5548 5556 5568 5584 5601 5612 5626 5637 5646 5657 5668 5680 5689
5778 5772 5763 5754 5746 5737 5726 5716 5704 5692 5683 5673 5660 5651 5641 5628 5615 5605 5594 5584 5574 5565 5558 5552 5547 5543 5540 5537 5534 5534 5537 5539 5544 5552 5564 5580 5595 5608 5620 5632 5643 5654 5665 5676
5778 5770 5762 5753 5744 5735 5725 5715 5703 5692 5679 5669 5663 5650 5639 5627 5617 5605 5596 5585 5572 5562 5554 5548 5542 5537 5533 5530 5527 5524 5526 5531 5535 5540 5548 5561 5578 5592 5604 5617 5628 5639 5651 5662
5777 5771 5762 5751 5742 5732 5723 5714 5703 5694 5682 5670 5656 5650 5639 5628 5616 5604 5592 5580 5570 5561 5551 5543 5537 5532 5527 5523 5519 5516 5516 5522 5527 5532 5537 5547 5560 5578 5589 5601 5613 5624 5635 5647
5776 5769 5762 5753 5742 5733 5722 5712 5704 5692 5682 5670 5660 5650 5640 5629 5617 5606 5594 5584 5574 5563 5550 5539 5532 5527 5522 5515 5510 5507 5508 5513 5521 5527 5531 5537 5547 5560 5575 5587 5598 5610 5620 5632
5775 5768 5761 5752 5745 5733 5722 5713 5703 5692 5682 5670 5661 5651 5639 5629 5619 5607 5595 5586 5575 5565 5553 5540 5530 5523 5516 5509 5503 5499 5500 5507 5518 5524 5529 5532 5537 5547 5558 5572 5582 5593 5605 5617
5774 5768 5760 5753 5743 5734 5725 5714 5703 5693 5683 5674 5663 5654 5642 5631 5620 5612 5603 5591 5581 5570 5557 5543 5530 5521 5513 5507 5500 5497 5501 5511 5519 5524 5527 5530 5533 5537 5545 5555 5567 5578 5589 5602
5774 5767 5760 5752 5744 5735 5726 5715 5706 5696 5686 5676 5668 5657 5649 5638 5627 5620 5609 5597 5586 5572 5559 5547 5534 5524 5518 5512 5508 5509 5512 5518 5523 5525 5528 5530 5532 5533 5536 5543 5554 5565 5574 5584
5773 5766 5759 5752 5745 5735 5727 5717 5708 5697 5688 5678 5669 5660 5651 5640 5632 5622 5612 5602 5591 5578 5566 5554 5541 5530 5523 5520 5519 5519 5520 5522 5525 5527 5529 5530 5530 5531 5532 5535 5541 5550 5560 5570
5770 5765 5758 5751 5743 5736 5728 5720 5710 5701 5691 5681 5671 5662 5652 5644 5636 5625 5616 5607 5596 5584 5572 5561 5549 5537 5529 5527 5526 5525 5525 5526 5527 5528 5529 5529 5529 5530 5531 5531 5533 5538 5546 5557
5768 5763 5757 5750 5743 5735 5728 5720 5712 5703 5693 5683 5674 5664 5656 5648 5638 5628 5620 5610 5599 5588 5578 5566 5555 5545 5537 5532 5530 5530 5530 5529 5530 5529 5529 5529 5529 5528 5528 5527 5527 5529 5534 5542
5766 5760 5754 5748 5741 5736 5728 5720 5713 5704 5695 5684 5676 5667 5657 5648 5639 5631 5621 5611 5602 5593 5582 5571 5562 5553 5544 5538 5534 5532 5532 5532 5531 5530 5529 5528 5528 5527 5526 5525 5523 5523 5524 5528
5763 5758 5752 5745 5739 5731 5726 5719 5711 5703 5694 5685 5677 5667 5658 5650 5640 5631 5622 5613 5605 5596 5587 5578 5569 5560 5552 5545 5538 5535 5533 5532 5532 5531 5529 5528 5526 5525 5524 5523 5521 5520 5519 5520
5757 5752 5747 5742 5735 5731 5723 5716 5709 5702 5696 5684 5677 5668 5659 5650 5641 5632 5623 5615 5606 5598 5591 5583 5575 5567 5559 5551 5545 5539 5534 5531 5530 5529 5528 5528 5526 5524 5522 5520 5519 5517 5516 5516
5754 5750 5745 5740 5732 5726 5720 5713 5708 5701 5692 5684 5676 5667 5659 5650 5642 5633 5625 5617 5608 5600 5593 5587 5580 5572 5565 5558 5551 5544 5539 5534 5529 5527 5526 5525 5525 5523 5521 5518 5517 5515 5514 5514
5749 5748 5744 5738 5731 5724 5718 5711 5705 5698 5690 5683 5674 5666 5658 5649 5641 5633 5626 5618 5611 5603 5595 5589 5583 5576 5569 5563 5556 5549 5543 5537 5532 5527 5523 5522 5521 5520 5519 5517 5516 5514 5513 5512
5743 5740 5737 5733 5728 5720 5713 5707 5701 5695 5688 5681 5673 5664 5656 5649 5641 5633 5626 5618 5611 5604 5597 5590 5584 5578 5572 5566 5560 5554 5547 5541 5536 5531 5525 5521 5518 5517 5515 5514 5514 5514 5512 5511
5738 5734 5731 5727 5721 5715 5708 5703 5697 5692 5685 5678 5671 5663 5656 5648 5641 5633 5625 5618 5611 5604 5597 5591 5585 5579 5573 5567 5563 5557 5551 5545 5539 5534 5529 5525 5520 5516 5513 5511 5510 5510 5510 5510
5733 5731 5726 5722 5716 5710 5705 5699 5694 5688 5682 5675 5668 5661 5653 5645 5639 5632 5625 5617 5610 5604 5598 5591 5585 5579 5573 5568 5562 5557 5553 5547 5542 5537 5532 5527 5523 5519 5515 5513 5510 5508 5506 5506